Weather Roundup
Issued by NWS

Home | Current Version | Previous Version | Text Only | Print | Product List | Glossary On
Versions: 1 2 3 4 5 6 7 8 9 10 11 12 13 14 15 16 17 18 19 20 21 22 23 24 25 26 27 28 29 30 31 32 33 34 35 36 37 38 39 40 41 42 43 44 45 46 47 48 49 50
000
NZUS93 KARX 260959
HRRWXR

CURRENT HOURLY OBSERVATIONS ACROSS
MUCH OF THE UPPER MISSISSIPPI VALLEY
NATIONAL WEATHER SERVICE LA CROSSE WI
500 AM CDT THU MAY 26 2016


...SOUTHEAST MINNESOTA...


CITY           SKY/WX    TMP DP  RH WIND       PRES   REMARKS
ROCHESTER      RAIN      58  57  97 NW10      29.86R FOG
ROCHESTER/MAYO CLOUDY    59  58  97 CALM      29.85R
WINONA         CLOUDY    63  61  94 NW15G24   29.84R
AUSTIN         RAIN      57  55  94 N3        29.86R
ALBERT LEA     LGT RAIN  57  57 100 CALM      29.85R
DODGE CENTER   LGT RAIN  57  57 100 SE3       29.83S
PRESTON        TSTM      57  55  92 N13G20      N/A
OWATONNA       CLOUDY    57  55  94 CALM      29.81F
FARIBAULT      NOT AVBL
$$

...ELSEWHERE IN MINNESOTA...


CITY           SKY/WX    TMP DP  RH WIND       PRES   REMARKS
MINNEAPOLIS    CLOUDY    67  52  58 VRB7G17   29.73F
INTNL FALLS    MOCLDY    54  52  93 SE6       29.75F
DULUTH         FOG       45  44  97 E7        29.79F VSB 1/4
RED WING       RAIN      61  57  88 CALM      29.81S
REDWOOD FALLS  MOCLDY    61  54  77 SW8       29.78R
MANKATO        CLOUDY    61  55  82 SE12      29.78R
WORTHINGTON    CLOUDY    61  55  81 SW14      29.85R
FAIRMONT       CLOUDY    63  46  55 S21       29.82R
$$

...SOUTHWEST WISCONSIN...


CITY           SKY/WX    TMP DP  RH WIND       PRES   REMARKS
LA CROSSE      CLOUDY    63  62  97 SE7       29.79R
PRAIRIE DU CHI CLOUDY    63  60  89 CALM      29.81R
BOSCOBEL       CLOUDY    62  60  93 E3        29.82R FOG
LONE ROCK      NOT AVBL
PLATTEVILLE    CLOUDY    68  62  80 S9        29.84R
FORT MC COY    CLOUDY    55  55 100 CALM      29.81S
CAMP DOUGLAS   FOG       57  57 100 CALM      29.80S VSB 1/4
MAUSTON-NEW LI CLOUDY    57  57 100 CALM      29.80F FOG
VIROQUA        FAIR      64  60  87 SE6       29.82F
WIS DELLS      CLOUDY    61  59  95 S3        29.84R
$$

...ELSEWHERE IN WISCONSIN...


CITY           SKY/WX    TMP DP  RH WIND       PRES   REMARKS
MILWAUKEE      CLOUDY    64  63  96 S6        29.85F FOG
MADISON        CLOUDY    65  63  93 S6        29.83S
GREEN BAY      CLOUDY    60  59  96 CALM      29.83R FOG
EAU CLAIRE     NOT AVBL
BLACK RVR FLS  FOG       55  55 100 CALM      29.80R VSB<1/4
MEDFORD        FOG       61  61 100 CALM      29.82S VSB 1/4
WAUSAU         FOG       63  32  31 S3        29.81S VSB 3/4
WIS RAPIDS     FOG       60  58  92 CALM      29.82S VSB 1/4
MARSHFIELD     FOG       60  58  92 S3        29.81S VSB 1/4
RICE LAKE      FOG       58  57  96 E3        29.81S VSB<1/4
$$

...NORTHEAST IOWA...


CITY           SKY/WX    TMP DP  RH WIND       PRES   REMARKS
WATERLOO       RAIN      58  57  97 W20G36    29.98R FOG
DUBUQUE        CLOUDY    67  62  84 S12       29.86R
DECORAH        CLOUDY    66  61  82 CALM      29.78F
MASON CITY     RAIN      59  57  93 SW13G23   29.93R FOG
CHARLES CITY   RAIN      61  61 100 NW13G20   29.89R
OELWEIN        CLOUDY    70  63  78 S15       29.82R
$$

...ELSEWHERE IN IOWA...


CITY           SKY/WX    TMP DP  RH WIND       PRES   REMARKS
DES MOINES     CLOUDY    64  57  78 CALM      29.84R
IOWA CITY      CLOUDY    70  64  81 SW6       29.87S
FORT DODGE     MOCLDY    57  54  88 E9        29.83F
MARSHALLTOWN   NOT AVBL
CEDAR RAPIDS   TSTM      65  65 100 NW13      29.89R FOG
$$

...NORTHERN ILLINOIS...


CITY           SKY/WX    TMP DP  RH WIND       PRES   REMARKS
CHICAGO-OHARE  PTCLDY    67  65  93 S9        29.87F
CHICAGO-MIDWAY PTCLDY    69  64  84 S7        29.88F
MOLINE         CLOUDY    73  63  70 SW12      29.87R
ROCKFORD       CLOUDY    65  63  93 S7        29.90R
PEORIA         CLOUDY    69  65  86 S8        29.89F
$$

NOTE: "FAIR" INDICATES FEW OR NO CLOUDS BELOW 12,000 FEET WITH NO
SIGNIFICANT WEATHER AND/OR OBSTRUCTIONS TO VISIBILITY. WIND
SPEEDS ARE IN MILES-PER-HOUR.




USA.gov is the U.S. government's official web portal to all federal, state and local government web resources and services.